TimeCDT,TemperatureF,Dew PointF,Humidity,Sea Level PressureIn,VisibilityMPH,Wind Direction,Wind SpeedMPH,Gust SpeedMPH,PrecipitationIn,Events,Conditions,WindDirDegrees,DateUTC
12:53 AM,59.0,50.0,72,29.64,10.0,South,8.1,-,N/A,,Clear,190,2012-10-17 05:53:00
1:53 AM,59.0,50.0,72,29.64,10.0,South,9.2,-,N/A,,Clear,180,2012-10-17 06:53:00
2:53 AM,57.9,50.0,75,29.62,10.0,South,8.1,-,N/A,,Clear,190,2012-10-17 07:53:00
3:53 AM,59.0,50.0,72,29.62,10.0,South,9.2,-,N/A,,Clear,190,2012-10-17 08:53:00
4:53 AM,57.9,48.9,72,29.62,10.0,South,9.2,-,N/A,,Clear,190,2012-10-17 09:53:00
5:53 AM,57.0,48.0,72,29.61,10.0,South,8.1,-,N/A,,Clear,190,2012-10-17 10:53:00
6:53 AM,55.9,46.9,72,29.62,10.0,South,6.9,-,N/A,,Clear,190,2012-10-17 11:53:00
7:53 AM,57.0,46.9,69,29.62,10.0,South,8.1,-,N/A,,Clear,190,2012-10-17 12:53:00
8:53 AM,61.0,48.9,64,29.61,10.0,SSW,13.8,20.7,N/A,,Clear,200,2012-10-17 13:53:00
9:53 AM,64.0,50.0,60,29.59,10.0,South,16.1,23.0,N/A,,Clear,180,2012-10-17 14:53:00
10:53 AM,66.0,48.0,52,29.57,10.0,SSW,16.1,25.3,N/A,,Clear,200,2012-10-17 15:53:00
11:53 AM,69.1,51.1,53,29.56,10.0,South,21.9,31.1,N/A,,Clear,190,2012-10-17 16:53:00
12:53 PM,68.0,52.0,56,29.53,10.0,South,19.6,33.4,N/A,,Overcast,190,2012-10-17 17:53:00
1:53 PM,66.0,52.0,60,29.53,10.0,SSW,18.4,31.1,N/A,,Overcast,200,2012-10-17 18:53:00
2:53 PM,64.9,54.0,68,29.52,7.0,SSW,18.4,25.3,0.01,Rain,Light Rain,200,2012-10-17 19:53:00
3:53 PM,61.0,55.9,83,29.49,9.0,South,4.6,-,0.04,Rain,Light Rain,170,2012-10-17 20:53:00
4:25 PM,60.8,57.2,88,29.50,2.5,South,5.8,-,0.07,Rain,Light Rain,190,2012-10-17 21:25:00
4:49 PM,60.8,55.4,82,29.50,6.0,SSW,6.9,-,0.11,Rain,Light Rain,200,2012-10-17 21:49:00
4:53 PM,61.0,55.9,83,29.50,6.0,South,10.4,16.1,0.12,Rain,Light Rain,190,2012-10-17 21:53:00
5:03 PM,60.8,55.4,82,29.52,1.8,South,16.1,26.5,0.06,Rain,Heavy Rain,190,2012-10-17 22:03:00
5:29 PM,57.2,57.2,100,29.52,2.0,South,5.8,-,0.19,Rain,Light Rain,170,2012-10-17 22:29:00
5:36 PM,57.2,57.2,100,29.51,1.8,SSE,6.9,-,0.19,Rain,Light Rain,150,2012-10-17 22:36:00
5:46 PM,57.2,55.4,94,29.50,2.5,SE,5.8,-,0.20,,Overcast,140,2012-10-17 22:46:00
5:53 PM,57.9,55.9,93,29.50,2.5,SE,9.2,-,0.20,,Overcast,130,2012-10-17 22:53:00
6:03 PM,57.2,55.4,94,29.49,3.0,ESE,11.5,-,N/A,,Overcast,120,2012-10-17 23:03:00
6:53 PM,57.0,54.0,89,29.45,10.0,ESE,11.5,19.6,N/A,,Overcast,120,2012-10-17 23:53:00
7:53 PM,57.9,54.0,87,29.42,10.0,SE,16.1,26.5,N/A,,Overcast,130,2012-10-18 00:53:00
8:53 PM,57.9,55.0,90,29.38,10.0,ESE,9.2,-,0.03,Rain,Light Rain,120,2012-10-18 01:53:00
9:53 PM,57.9,55.0,90,29.41,4.0,South,15.0,21.9,0.12,Rain,Rain,170,2012-10-18 02:53:00
10:39 PM,57.2,55.4,94,29.40,9.0,South,12.7,20.7,0.07,Rain,Light Rain,170,2012-10-18 03:39:00
10:53 PM,57.9,55.9,93,29.39,7.0,South,13.8,23.0,0.09,Rain,Light Rain,170,2012-10-18 03:53:00
11:14 PM,57.2,55.4,94,29.39,7.0,South,13.8,23.0,0.03,Rain,Light Rain,190,2012-10-18 04:14:00
11:53 PM,57.9,55.9,93,29.37,10.0,South,12.7,-,0.05,,Overcast,190,2012-10-18 04:53:00